Home   Weather   Paradise   Past weeks

Flag for Canada Past Weather in Paradise, Newfoundland and Labrador, Canada — Yesterday and Last 2 Weeks

Now
43 °F

Sprinkles. Fog.


Feels Like: 40 °F
Forecast: 41 / 49 °F
Wind: 5 mph from Northwest

Location: St. John's

Current Time: Sep 27, 2016 at 4:34:42 AM

Latest Report: Sep 27, 2016 at 3:30 AM


Visibility: 6 mi

Pressure: 29.74 "Hg

Humidity: 93%

Dew Point: 41 °F

Location of ParadiseLocation

Past Weather in Paradise — Graph

°F

Paradise Temperature Yesterday

Maximum temperature yesterday: 50 °F (at 2:30 PM)
Minimum temperature yesterday: 41 °F (at 4:30 AM)
Average temperature yesterday: 44 °F

High & Low Weather Summary for the Past Weeks

 TemperatureHumidityPressure
High73 °F (Sep 14, 1:30 PM)100% (Sep 12, 6:30 AM)30.35 "Hg (Sep 12, 6:30 AM)
Low36 °F (Sep 25, 4:30 AM)46% (Sep 13, 11:30 AM)29.57 "Hg (Sep 25, 4:30 PM)
Average54 °F82%29.92 "Hg
* Reported Sep 12 3:30 AM — Sep 27 3:30 AM, Paradise, Weather by CustomWeather, © 2016

Note: Actual official high and low records may vary slightly from our data, if they occured in-between our weather recording intervals... More about our weather records

Advertising

Paradise Weather History for the Previous 24 Hours

Scroll right to see more
 ConditionsComfort  
Time TempWeatherWind HumidityBarometerVisibility
3:30 AM
Tue, Sep 27
43 °FSprinkles. Fog.5 mph93%29.74 "Hg6 mi
2:30 AM43 °FSprinkles. Fog.2 mph93%29.74 "Hg6 mi
1:30 AM43 °FSprinkles. Mostly cloudy.2 mph93%29.74 "Hg12 mi
12:30 AM43 °FSprinkles. Mostly cloudy.2 mph93%29.74 "Hg12 mi
11:30 PM
Mon, Sep 26
43 °FOvercast.5 mph93%29.75 "Hg15 mi
10:30 PM43 °FMostly cloudy.5 mph93%29.74 "Hg15 mi
9:30 PM43 °FPassing clouds.6 mph87%29.73 "Hg15 mi
8:30 PM43 °FPassing clouds.6 mph93%29.73 "Hg15 mi
7:30 PM45 °FSprinkles. Fog.14 mph87%29.71 "Hg5 mi
6:30 PM46 °FPassing clouds.9 mph82%29.69 "Hg15 mi
5:30 PM48 °FMore clouds than sun.13 mph76%29.67 "Hg15 mi
4:30 PM50 °FPartly sunny.18 mph71%29.65 "Hg15 mi
2:30 PM50 °FScattered clouds.15 mph71%29.64 "Hg15 mi
1:30 PM48 °FPartly sunny.18 mph76%29.65 "Hg15 mi
12:30 PM48 °FPartly sunny.17 mph76%29.64 "Hg15 mi
11:30 AM45 °FOvercast.12 mph93%29.64 "Hg15 mi
10:30 AM46 °FOvercast.16 mph82%29.63 "Hg15 mi
9:30 AM45 °FPartly sunny.15 mph87%29.62 "Hg15 mi
8:30 AM43 °FPartly sunny.18 mph93%29.59 "Hg15 mi
7:30 AM41 °FPartly sunny.15 mph93%29.59 "Hg15 mi
6:30 AM41 °FBroken clouds.10 mph93%29.59 "Hg15 mi
5:30 AM41 °FPassing clouds.8 mph87%29.58 "Hg15 mi
4:30 AM41 °FPassing clouds.14 mph87%29.57 "Hg15 mi
Weather by CustomWeather, © 2016

See weather overviewHow to use our weather pages